When you browse on this site, cookies collect data to enhance your experience and personalize the content and advertising you see.
Visit our Privacy Policy to learn more. By continuing to use the site, you agree to this use of cookies and data.
  • In Hungary
  • List of Countries
  • For 7 days
  • Water Temperature
  • Satellite Maps
  • Weather Map
  • News
  • Weather Widgets
  • user-avatar
    Login

    Hourly Weather Bhopal

    Today, 23 July, Tuesday

    Time Temperature Precipitation Wind Pressure Humidity
    00:00 +31°C° 0 mm 3 mps 709 mmHg 55%
    01:00 +32°C° 0 mm 4 mps 709 mmHg 57%
    02:00 +32°C° 0 mm 4 mps 709 mmHg 58%
    03:00 +30°C° 0 mm 4 mps 708 mmHg 60%
    04:00 +30°C° 0 mm 3 mps 708 mmHg 62%
    05:00 +29°C° 0 mm 3 mps 708 mmHg 65%
    06:00 +30°C° 0 mm 4 mps 709 mmHg 62%
    07:00 +32°C° 0 mm 4 mps 710 mmHg 60%
    08:00 +33°C° 0 mm 4 mps 710 mmHg 57%
    09:00 +35°C° 0 mm 3 mps 710 mmHg 53%
    10:00 +36°C° 0 mm 3 mps 710 mmHg 48%
    11:00 +37°C° 0 mm 2 mps 710 mmHg 44%
    12:00 +38°C° 0 mm 2 mps 709 mmHg 42%
    13:00 +38°C° 0 mm 2 mps 709 mmHg 39%
    14:00 +39°C° 0 mm 1 mps 708 mmHg 37%
    15:00 +39°C° 0 mm 2 mps 708 mmHg 38%
    16:00 +38°C° 0 mm 2 mps 708 mmHg 39%
    17:00 +38°C° 0 mm 2 mps 707 mmHg 41%
    18:00 +37°C° 0 mm 3 mps 708 mmHg 44%
    19:00 +36°C° 0 mm 3 mps 708 mmHg 47%
    20:00 +35°C° 0 mm 3 mps 708 mmHg 50%
    21:00 +34°C° 0 mm 4 mps 708 mmHg 52%
    22:00 +34°C° 0 mm 4 mps 709 mmHg 53%
    23:00 +33°C° 0 mm 4 mps 709 mmHg 55%

    Tomorrow, 24 July, Wednesday

    Time Temperature Precipitation Wind Pressure Humidity
    00:00 +33°C° 0 mm 4 mps 708 mmHg 57%
    01:00 +31°C° 0 mm 3 mps 708 mmHg 59%
    02:00 +31°C° 0 mm 3 mps 708 mmHg 61%
    03:00 +30°C° 0 mm 3 mps 708 mmHg 63%
    04:00 +30°C° 0 mm 3 mps 708 mmHg 65%
    05:00 +30°C° 0 mm 3 mps 708 mmHg 67%
    06:00 +31°C° 0 mm 3 mps 708 mmHg 62%
    07:00 +33°C° 0 mm 3 mps 709 mmHg 58%
    08:00 +35°C° 0 mm 4 mps 709 mmHg 54%
    09:00 +36°C° 0 mm 3 mps 709 mmHg 49%
    10:00 +37°C° 0 mm 3 mps 709 mmHg 45%
    11:00 +39°C° 0 mm 3 mps 709 mmHg 40%
    12:00 +39°C° 0 mm 3 mps 709 mmHg 39%
    13:00 +39°C° 0 mm 3 mps 708 mmHg 38%
    14:00 +39°C° 0 mm 3 mps 708 mmHg 37%
    15:00 +39°C° 0 mm 3 mps 707 mmHg 38%
    16:00 +39°C° 0 mm 3 mps 707 mmHg 38%
    17:00 +39°C° 0 mm 3 mps 707 mmHg 39%
    18:00 +38°C° 0 mm 3 mps 707 mmHg 42%
    19:00 +37°C° 0 mm 3 mps 708 mmHg 45%
    20:00 +36°C° 0 mm 2 mps 708 mmHg 49%
    21:00 +34°C° 0.7 mm 4 mps 708 mmHg 55%
    22:00 +33°C° 0.7 mm 5 mps 709 mmHg 62%
    23:00 +30°C° 0.7 mm 7 mps 709 mmHg 69%

    Day after tomorrow, 25 July, Thursday

    Time Temperature Precipitation Wind Pressure Humidity
    00:00 +30°C° 0.6 mm 6 mps 708 mmHg 67%
    01:00 +29°C° 0.6 mm 5 mps 708 mmHg 66%
    02:00 +28°C° 0.6 mm 4 mps 708 mmHg 64%
    03:00 +28°C° 1.3 mm 3 mps 708 mmHg 68%
    04:00 +28°C° 1.3 mm 2 mps 708 mmHg 72%
    05:00 +28°C° 1.3 mm 1 mps 708 mmHg 77%
    06:00 +28°C° 2.2 mm 2 mps 709 mmHg 78%
    07:00 +28°C° 2.2 mm 3 mps 709 mmHg 78%
    08:00 +29°C° 2.2 mm 3 mps 709 mmHg 79%
    09:00 +29°C° 0.6 mm 4 mps 710 mmHg 77%
    10:00 +30°C° 0.6 mm 4 mps 710 mmHg 76%
    11:00 +30°C° 0.6 mm 5 mps 710 mmHg 74%
    12:00 +30°C° 1 mm 4 mps 709 mmHg 76%
    13:00 +29°C° 1 mm 3 mps 709 mmHg 79%
    14:00 +29°C° 1 mm 3 mps 708 mmHg 81%
    15:00 +29°C° 0.7 mm 2 mps 708 mmHg 81%
    16:00 +29°C° 0.7 mm 2 mps 707 mmHg 80%
    17:00 +29°C° 0.7 mm 2 mps 707 mmHg 80%
    18:00 +29°C° 0.2 mm 2 mps 707 mmHg 81%
    19:00 +28°C° 0.2 mm 2 mps 708 mmHg 81%
    20:00 +28°C° 0.2 mm 2 mps 708 mmHg 82%
    21:00 +28°C° 1.2 mm 2 mps 708 mmHg 82%
    22:00 +28°C° 1.2 mm 2 mps 708 mmHg 82%
    23:00 +28°C° 1.2 mm 2 mps 708 mmHg 82%

    26 July, Friday

    Time Temperature Precipitation Wind Pressure Humidity
    00:00 +28°C° 1.2 mm 3 mps 708 mmHg 83%
    01:00 +27°C° 1.2 mm 4 mps 708 mmHg 84%
    02:00 +27°C° 1.2 mm 4 mps 707 mmHg 85%
    03:00 +27°C° 0.8 mm 4 mps 707 mmHg 86%
    04:00 +27°C° 0.8 mm 4 mps 707 mmHg 87%
    05:00 +26°C° 0.8 mm 3 mps 707 mmHg 88%
    06:00 +27°C° 0.3 mm 3 mps 708 mmHg 86%
    07:00 +27°C° 0.3 mm 4 mps 708 mmHg 85%
    08:00 +27°C° 0.3 mm 4 mps 709 mmHg 84%
    09:00 +27°C° 0.3 mm 4 mps 709 mmHg 82%
    10:00 +28°C° 0.3 mm 4 mps 709 mmHg 80%
    11:00 +28°C° 0.3 mm 5 mps 709 mmHg 77%
    12:00 +29°C° 0 mm 5 mps 709 mmHg 74%
    13:00 +30°C° 0 mm 5 mps 708 mmHg 70%
    14:00 +32°C° 0 mm 5 mps 708 mmHg 66%
    15:00 +32°C° 0.4 mm 4 mps 708 mmHg 66%
    16:00 +32°C° 0.4 mm 4 mps 707 mmHg 66%
    17:00 +32°C° 0.4 mm 4 mps 707 mmHg 67%
    18:00 +30°C° 0.5 mm 3 mps 708 mmHg 71%
    19:00 +29°C° 0.5 mm 3 mps 708 mmHg 75%
    20:00 +28°C° 0.5 mm 2 mps 708 mmHg 79%
    21:00 +28°C° 0.7 mm 2 mps 708 mmHg 80%
    22:00 +27°C° 0.7 mm 3 mps 709 mmHg 81%
    23:00 +27°C° 0.7 mm 3 mps 709 mmHg 83%

    27 July, Saturday

    Time Temperature Precipitation Wind Pressure Humidity
    00:00 +27°C° 1 mm 3 mps 708 mmHg 83%
    01:00 +27°C° 1 mm 4 mps 708 mmHg 84%
    02:00 +27°C° 1 mm 4 mps 707 mmHg 85%
    03:00 +27°C° 1 mm 4 mps 707 mmHg 85%
    04:00 +26°C° 1 mm 5 mps 707 mmHg 86%
    05:00 +26°C° 1 mm 5 mps 707 mmHg 87%
    06:00 +26°C° 0.4 mm 5 mps 708 mmHg 86%
    07:00 +27°C° 0.4 mm 5 mps 708 mmHg 85%
    08:00 +27°C° 0.4 mm 5 mps 709 mmHg 84%
    09:00 +28°C° 0.3 mm 5 mps 708 mmHg 81%
    10:00 +29°C° 0.3 mm 5 mps 708 mmHg 78%
    11:00 +30°C° 0.3 mm 6 mps 708 mmHg 74%
    12:00 +30°C° 0.6 mm 5 mps 708 mmHg 74%
    13:00 +30°C° 0.6 mm 5 mps 708 mmHg 73%
    14:00 +30°C° 0.6 mm 5 mps 707 mmHg 72%
    15:00 +29°C° 1.1 mm 5 mps 707 mmHg 77%
    16:00 +28°C° 1.1 mm 5 mps 707 mmHg 81%
    17:00 +27°C° 1.1 mm 5 mps 706 mmHg 85%
    18:00 +27°C° 0.4 mm 4 mps 707 mmHg 86%
    19:00 +27°C° 0.4 mm 4 mps 707 mmHg 87%
    20:00 +27°C° 0.4 mm 4 mps 707 mmHg 88%
    21:00 +26°C° 0.5 mm 4 mps 707 mmHg 89%
    22:00 +26°C° 0.5 mm 4 mps 708 mmHg 89%
    23:00 +26°C° 0.5 mm 4 mps 708 mmHg 90%

    28 July, Sunday

    Time Temperature Precipitation Wind Pressure Humidity
    00:00 +26°C° 0.9 mm 3 mps 707 mmHg 90%
    01:00 +26°C° 0.9 mm 3 mps 707 mmHg 91%
    02:00 +26°C° 0.9 mm 3 mps 706 mmHg 92%
    03:00 +26°C° 0.5 mm 3 mps 706 mmHg 92%
    04:00 +26°C° 0.5 mm 3 mps 706 mmHg 93%
    05:00 +26°C° 0.5 mm 2 mps 706 mmHg 93%
    06:00 +26°C° 1.4 mm 3 mps 707 mmHg 93%
    07:00 +26°C° 1.4 mm 4 mps 707 mmHg 92%
    08:00 +27°C° 1.4 mm 4 mps 707 mmHg 92%
    09:00 +27°C° 2.1 mm 4 mps 707 mmHg 91%
    10:00 +27°C° 2.1 mm 5 mps 707 mmHg 91%
    11:00 +27°C° 2.1 mm 5 mps 707 mmHg 90%
    12:00 +27°C° 3.1 mm 6 mps 707 mmHg 90%
    13:00 +27°C° 3.1 mm 7 mps 706 mmHg 90%
    14:00 +26°C° 3.1 mm 8 mps 706 mmHg 90%
    15:00 +26°C° 0.5 mm 7 mps 706 mmHg 90%
    16:00 +26°C° 0.5 mm 7 mps 706 mmHg 89%
    17:00 +26°C° 0.5 mm 6 mps 706 mmHg 89%
    18:00 +26°C° 0.1 mm 5 mps 706 mmHg 90%
    19:00 +26°C° 0.1 mm 5 mps 707 mmHg 90%
    20:00 +26°C° 0.1 mm 4 mps 707 mmHg 91%
    21:00 +26°C° 0 mm 4 mps 707 mmHg 92%
    22:00 +26°C° 0 mm 4 mps 707 mmHg 92%
    23:00 +26°C° 0 mm 4 mps 708 mmHg 93%
    Show more